Погода в Ладоге

Россия / Санкт-Петербург и Ленинградская область     59°37′43″N   30°30′14″E
темп.,
°C
ветер,
м/с
пор.,
м/с
влажн.,
%
обл.,
%
осадки,
мм/ч
давл.,
гПа
погр.,
м
3 марта, ср
ср300:00−1зсз512870 0.0 1017419
03:00−1зсз513900 0.0 1018471
06:00−2зсз5119218 0.0 1016416
09:00−2з5129134 0.0 1015511
12:000з6128470 0.0 1013691
15:00+2з6127484 0.0 1011965
18:00+2з6138080 0.0 1007880
21:00+1зсз6129590 0.2 1005722
4 марта, чт
чт400:000сз41089100 0.1 1004593
03:00−3сз498271 0.1 1004379
06:00−4сз48800 0.0 1003326
09:00−4сз36840 0.0 1003320
12:00−3сз34780 0.0 1003544
15:00−3сз458545 0.1 1004536
18:00−4ссз4789100 0.8 1004572
21:00−5ссз4787100 1.3 1005735
5 марта, пт
пт500:00−6сз378589 0.0 1006390
03:00−7сз368781 0.1 1007405
06:00−8сз478985 0.0 1008527
09:00−8сз368793 0.1 1009510
12:00−7сз3582100 0.1 1011559
15:00−5сз4577100 0.2 1013727
18:00−6сз3688100 0.2 1014532
21:00−7ссз2590100 0.6 1015362
6 марта, сб
сб600:00−8зсз368880 0.1 1016257
03:00−9зсз369255 0.1 1016180
06:00−9з36930 0.0 1015199
09:00−8зюз39830 0.0 1014401
12:00−4юз597031 0.0 1011809
15:00−4юз7138166 0.1 10061016
18:00−3юз91688100 0.9 10001216
21:00−2юз81594100 1.7 995966
7 марта, вс
вс700:00−1зюз71396100 3.0 990869
03:00−1зюз71495100 5.3 985909
06:00−7з81761100 0.7 9831411
09:00−9з9178380 0.8 9831213
12:00−6зсз101689100 1.0 9841265
15:00−4сз71293100 2.5 986926
18:00−6ссз71390100 1.8 9911223
21:00−10ссз81386100 2.4 9961038